Kapolei, HI

11:38 PM HST on February 12, 2016 (GMT -1000)
Kalaeloa (John Rodgers Field)

Weather History for PHJR - January, 2013

Change the Weather History Date:

Friday, January 11, 2013

  Actual Average (PHNL) Record (PHNL)
Temperature  
Mean Temperature 75 °F 73 °F  
Max Temperature 82 °F 80 °F 85 °F (1996)
Min Temperature 68 °F 66 °F 59 °F (1998)
Degree Days  
Heating Degree Days 0 0  
Month to date heating degree days 0  
Since 1 July heating degree days 0  
Cooling Degree Days 10 8  
Month to date cooling degree days 90  
Year to date cooling degree days 90  
Growing Degree Days 25 (Base 50)    
Moisture  
Dew Point 61 °F    
Average Humidity 67    
Maximum Humidity 78    
Minimum Humidity 45    
Precipitation  
Precipitation 0.00 in 0.07 in 2.57 in (1975)
Month to date precipitation 0.99  
Year to date precipitation 0.99  
Snow  
Snow 0.00 in - - ()
Month to date snowfall  
Since 1 July snowfall  
Snow Depth -    
Sea Level Pressure  
Sea Level Pressure 29.96 in    
Wind  
Wind Speed 4 mph (ENE)    
Max Wind Speed 7 mph    
Max Gust Speed -    
Visibility 10 miles    
Events      
T = Trace of Precipitation, MM = Missing Value Source: NWS Daily Summary

Daily Weather History Graph

Daily Weather History Graph

Search for Another Location

Airport or City:

Trip Planner

Search our weather history database for the weather conditions in past years. The results will help you decide how hot, cold, wet, or windy it might be!

Date:

Astronomy

Jan. 11, 2013 Rise Set
Actual Time 7:12 AM HST 6:08 PM HST
Civil Twilight 6:48 AM HST 6:32 PM HST
Nautical Twilight 6:20 AM HST 7:00 PM HST
Astronomical Twilight 5:53 AM HST 7:27 PM HST
Moon 7:00 AM HST (1/11) 6:31 PM HST (1/11)
Length of Visible Light 11h 44m
Length of Day
10h 56m
New Moon, 0% of the Moon is Illuminated
Jan 11
New Moon
Jan 18
First Quarter
Jan 26
Full
Feb 3
Last Quarter
Feb 9
New

Hourly Weather History & Observations

Time (HST) Temp. Heat Index Dew Point Humidity Pressure Visibility Wind Dir Wind Speed Gust Speed Precip Events Conditions
12:53 AM 72.0 °F - 62.1 °F 71% 29.99 in 10.0 mi Variable 5.8 mph - N/A   Clear
1:53 AM 70.0 °F - 62.1 °F 76% 29.97 in 10.0 mi Variable 3.5 mph - N/A   Clear
2:53 AM 71.1 °F - 61.0 °F 70% 29.96 in 10.0 mi ENE 3.5 mph - N/A   Clear
3:29 AM 68.0 °F - 60.8 °F 78% 29.94 in 10.0 mi ENE 3.5 mph - N/A   Partly Cloudy
3:53 AM 69.1 °F - 61.0 °F 75% 29.95 in 10.0 mi Variable 3.5 mph - N/A   Clear
4:10 AM 68.0 °F - 60.8 °F 78% 29.93 in 10.0 mi Calm Calm - N/A   Partly Cloudy
4:53 AM 68.0 °F - 61.0 °F 78% 29.95 in 10.0 mi ENE 3.5 mph - N/A   Clear
5:16 AM 68.0 °F - 60.8 °F 78% 29.93 in 10.0 mi ENE 3.5 mph - N/A   Scattered Clouds
5:53 AM 68.0 °F - 61.0 °F 78% 29.95 in 10.0 mi East 3.5 mph - N/A   Unknown
6:53 AM 68.0 °F - 61.0 °F 78% 29.97 in 10.0 mi NE 3.5 mph - N/A   Scattered Clouds
7:53 AM 70.0 °F - 61.0 °F 73% 30.00 in 10.0 mi Calm Calm - N/A   Clear
8:53 AM 73.9 °F - 62.1 °F 66% 30.02 in 10.0 mi Variable 4.6 mph - N/A   Mostly Cloudy
9:53 AM 77.0 °F - 62.1 °F 60% 30.03 in 10.0 mi Variable 4.6 mph - N/A   Partly Cloudy
10:53 AM 79.0 °F - 60.1 °F 52% 30.02 in 10.0 mi NNE 5.8 mph - N/A   Scattered Clouds
11:53 AM 81.0 °F 81.3 °F 59.0 °F 47% 30.00 in 10.0 mi Calm Calm - N/A   Partly Cloudy
12:53 PM 82.0 °F 82.1 °F 59.0 °F 45% 29.94 in 10.0 mi Variable 5.8 mph - N/A   Clear
1:53 PM 82.9 °F 83.3 °F 61.0 °F 47% 29.91 in 10.0 mi Variable 5.8 mph - N/A   Clear
2:53 PM 82.0 °F 82.4 °F 60.1 °F 47% 29.90 in 10.0 mi Variable 5.8 mph - N/A   Partly Cloudy
3:53 PM 80.1 °F 81.1 °F 61.0 °F 52% 29.91 in 10.0 mi East 6.9 mph - N/A   Clear
4:53 PM 78.1 °F - 62.1 °F 58% 29.92 in 10.0 mi ENE 5.8 mph - N/A   Clear
5:53 PM 75.0 °F - 62.1 °F 64% 29.94 in 10.0 mi Variable 4.6 mph - N/A   Clear
6:53 PM 73.0 °F - 62.1 °F 68% 29.94 in 10.0 mi Variable 3.5 mph - N/A   Partly Cloudy
7:36 PM 71.6 °F - 62.6 °F 73% 29.93 in 10.0 mi Calm Calm - N/A   Partly Cloudy
7:53 PM 72.0 °F - 63.0 °F 73% 29.95 in 10.0 mi Variable 3.5 mph - N/A   Mostly Cloudy
8:53 PM 71.1 °F - 63.0 °F 75% 29.96 in 10.0 mi Calm Calm - N/A   Clear
9:53 PM 71.1 °F - 63.0 °F 75% 29.96 in 10.0 mi Calm Calm - N/A   Clear
10:53 PM 72.0 °F - 63.0 °F 73% 29.95 in 10.0 mi Calm Calm - N/A   Clear
11:53 PM 70.0 °F - 62.1 °F 76% 29.96 in 10.0 mi Calm Calm - N/A   Clear